Location: �clusier
(49.9361°N, 2.7869°E)
Time: 23:35:26
(UTC+00:00)

Cosmos 1331 Rocket - Pass Details

Date: 28 October 2021
Orbit: 749 x 778 km, 74.0° (Epoch: 30 November)

Event Time Altitude Azimuth Distance (km) Brightness Sun altitude
Rises 05:26:56 0° 338° (NNW) 3,236 7.0 -11.0°
Reaches altitude 10° 05:29:23 10° 344° (NNW) 2,311 6.3 -10.6°
Maximum altitude 05:34:29 50° 60° (ENE) 979 4.9 -9.8°
Drops below altitude 10° 05:39:35 10° 136° (SE) 2,315 7.4 -9.0°
Sets 05:42:02 0° 141° (SE) 3,241 8.1 -8.6°
